Location: Austin
(30.3000°N, 97.7500°W)
Time: 02:14:24
(UTC-05:00)

Meteor 1-21 - Pass Details

Date: 11 June 2024
Orbit: 844 x 886 km, 81.2° (Epoch: 21 June)

Event Time Altitude Azimuth Distance (km) Brightness Sun altitude
Exits shadow 23:18:16 60° 65° (ENE) 1,003 4.4 -27.8°
Drops below altitude 10° 23:23:24 10° 15° (NNE) 2,544 7.2 -28.4°
Sets 23:25:52 0° 12° (NNE) 3,489 8.0 -28.7°
